This is the latest recevied weather packets stored in our database for station/object HOWARD. If no packets are shown the sender has not sent any weather packets the latest 10 day(s).
| Time | Temp. | Humidity | Pressure | Rain* | Wind** | Luminosity | Snow |
|---|---|---|---|---|---|---|---|
| 1777623102 | 3.89° C | 48% | 1016.1 hPa | 0 mm | - | - | - |
| 1777622561 | 4.44° C | 46% | 1016.1 hPa | 0 mm | - | - | - |
| 1777622502 | 4.44° C | 46% | 1016.1 hPa | 0 mm | - | - | - |
| 1777621902 | 4.44° C | 50% | 1016.2 hPa | 0 mm | - | - | - |
| 1777621302 | 4.44° C | 51% | 1016.2 hPa | 0 mm | - | - | - |
| 1777620702 | 4.44° C | 50% | 1016.3 hPa | 0 mm | - | - | - |
| 1777620102 | 3.89° C | 63% | 1016.3 hPa | 0 mm | - | - | - |
| 1777619502 | 3.89° C | 64% | 1016.3 hPa | 0 mm | - | - | - |
| 1777618902 | 3.89° C | 65% | 1016.4 hPa | 0 mm | - | - | - |
| 1777618302 | 3.89° C | 64% | 1016.5 hPa | 0 mm | - | - | - |
| 1777617702 | 3.89° C | 65% | 1016.6 hPa | 0 mm | - | - | - |
| 1777617102 | 3.89° C | 64% | 1016.7 hPa | 0 mm | - | - | - |
| 1777616502 | 3.89° C | 63% | 1016.7 hPa | 0 mm | - | - | - |
| 1777615902 | 3.89° C | 64% | 1016.6 hPa | 0 mm | - | - | - |
| 1777615302 | 3.89° C | - | 1016.6 hPa | 0 mm | - | - | - |
| 1777614702 | 3.33° C | 66% | 1016.8 hPa | 0 mm | - | - | - |
| 1777614102 | 2.78° C | 67% | 1016.7 hPa | 0 mm | - | - | - |
| 1777613502 | 2.78° C | 67% | 1016.8 hPa | 0 mm | - | - | - |
| 1777612902 | 2.78° C | 66% | 1016 hPa | 0 mm | - | - | - |
| 1777612302 | 2.78° C | 66% | 1016.1 hPa | 0 mm | - | - | - |
| 1777611702 | 3.33° C | 65% | 1016.2 hPa | 0 mm | - | - | - |
| 1777611102 | 3.33° C | 65% | 1016.2 hPa | 0 mm | - | - | - |
| 1777610503 | 3.33° C | 65% | 1016.3 hPa | 0 mm | - | - | - |
| 1777609902 | 3.89° C | 64% | 1016.2 hPa | 0 mm | - | - | - |
| 1777609302 | 3.89° C | 62% | 1016.2 hPa | 0 mm | - | - | - |
* Rain latest hour (hover to see other rain measurements)
** Current wind speed in m/s (hover to see current wind gust speed)